Terug naar catalogus

ATLAS 2 CENTAUR R/B

ActiefHEO
NORAD 23590·ROCKET BODY·🇺🇸 United States

Gelanceerd May 31, 1995 vanaf Cape Canaveral Space Force Station

Loading…

Volgende Passages (komende 24 uur)

TLE

VersSource: Space-Track

Epoch: Sep 14, 2026, 11:13 UTC

1 23590U 95027B   26257.46767455  .00004692  00000-0  16576-2 0  9996
2 23590  26.8117 198.5587 5800922 355.9583   0.8230  4.30637159420404

Volg ATLAS 2 CENTAUR R/B in realtime met AllMySat

Download on the App Store